Preview of NWS' New Version of Forecast
This preview is not operational and should not be used for support decisions.
Latest weather observations around

Cloquet Carlton County Airport (KCOQ)

Using English Units (Switch to International System of Units)
Date/ Time (CDT) Wind (mph) Vis. (mi) Weather Sky Cond. Temp (°F) Rel. Humidity Wind Chill (°F) Heat Index (°F) Pressure Precip. (in)
Air Dwpt 6 hour Altimeter (inHg) Sea level (inHg) 1 hr 3 hr 6 hr
Max Min
Jun 18 05:35 NNW 7 10 Clear CLR 61 57     88%     29.98        
Jun 18 05:15 NNW 7 10 Clear CLR 61 57     88%     29.98        
Jun 18 04:55 N 5 10 Clear CLR 61 57     88%     29.96        
Jun 18 04:35 NNW 5 10 Clear CLR 61 57     88%     29.96        
Jun 18 04:15 NNW 6 10 Clear CLR 63 59     88%     29.95        
Jun 18 03:55 NNW 6 10 Partly Cloudy SCT100 63 59     88%     29.95        
Jun 18 03:35 NNW 6 10 Cloudy OVC100 63 59     88%     29.94        
Jun 18 03:16 NNW 8 10 Mostly Cloudy BKN100 63 59     88%     29.93        
Jun 18 02:55 N 7 10 Mostly Cloudy BKN049 63 61     94%     29.92        
Jun 18 02:35 NNW 7 10 Cloudy OVC047 63 61     94%     29.92        
Jun 18 02:15 N 6 10 Light Rain SCT031 OVC045 63 61     94%     29.91        
Jun 18 01:55 N 3 10 Light Rain SCT045 BKN065 BKN100 64 61     88%     29.92        
Jun 18 01:35 Calm 10 Light Rain SCT065 SCT090 BKN110 64 61     88%     29.93        
Jun 18 01:15 N 5 10 Cloudy OVC110 64 61     88%     29.94        
Jun 18 00:55 N 6 10 Mostly Cloudy BKN110 64 61     88%     29.93        
Jun 18 00:35 NNW 7 10 Cloudy OVC110 64 61     88%     29.92        
Jun 18 00:15 NNW 8 10 Cloudy OVC110 64 61     88%     29.92        
Jun 17 23:55 N 8 10 Cloudy OVC110 64 61     88%     29.9        
Jun 17 23:35 N 8 10 Cloudy BKN065 OVC110 66 61     83%     29.91        
Jun 17 23:15 N 9 10 Cloudy OVC010 66 63     88%     29.91        
Jun 17 22:55 N 8 10 Cloudy OVC010 66 63     88%     29.9        
Jun 17 22:35 N 6 10 Cloudy OVC010 66 63     88%     29.9        
Jun 17 22:15 NNW 9 10 Cloudy BKN010 BKN019 OVC110 66 63     88%     29.91        
Jun 17 21:55 N 8 10 Cloudy BKN010 BKN017 OVC110 66 63     88%     29.91        
Jun 17 21:35 NNW 10 10 Cloudy OVC010 68 63     83%     29.9        
Jun 17 21:15 NNW 10 10 Cloudy OVC010 70 64     83%     29.88        
Jun 17 20:55 N 9 10 Cloudy BKN010 BKN013 OVC017 70 66     88%     29.86        
Jun 17 20:35 N 7 10 Cloudy SCT010 BKN017 OVC030 72 66     83%   72 29.85        
Jun 17 20:15 NNW 9 10 Light Drizzle SCT008 BKN020 OVC046 72 66     83%   72 29.85        
Jun 17 19:55 W 5 10 Mostly Cloudy SCT008 SCT028 BKN050 72 66     83%   72 29.84        
Jun 17 19:35 Calm 10 Clear CLR 72 66     83%   72 29.83        
Jun 17 19:15 Calm 10 Partly Cloudy SCT008 72 66     83%   72 29.82        
Jun 17 18:55 SW 3 10 Partly Cloudy SCT008 72 66     83%   72 29.84        
Jun 17 18:36 Calm 10 Mostly Cloudy BKN110 72 66     83%   72 29.84        
Jun 17 18:15 Calm 10 Cloudy SCT009 OVC110 72 66     83%   72 29.83        
Jun 17 17:55 SW 5 10 Cloudy OVC009 72 66     83%   72 29.83        
Jun 17 17:35 SW 3 10 Cloudy OVC011 72 66     83%   72 29.82        
Jun 17 17:15 Calm 10 Mostly Cloudy BKN013 72 66     83%   72 29.82        
Jun 17 16:55 Calm 10 Partly Cloudy SCT015 72 66     83%   72 29.81   0    
Jun 17 16:35 E 5 10 Cloudy SCT004 SCT008 OVC015 70 66     88%     29.81   0    
Jun 17 16:15 SSE 3 10 Mostly Cloudy BKN002 BKN019 68 66     94%     29.83   0    
Jun 17 15:55 E 3 10 Rain BKN002 OVC007 68 64     88%     29.81   0    
Jun 17 15:35 SE 3 10 Thunderstorms and Rain SCT002 BKN033 OVC060 68 64     88%     29.82   0    
Jun 17 15:15 SE 6 10 Thunderstorms and Rain SCT005 BKN045 OVC080 68 64     88%     29.82   0    
Jun 17 14:55 NW 5 3 Thunderstorms and Rain BKN005 BKN026 OVC045 68 64     88%     29.82   0    
Jun 17 14:35 SE 6 7 Cloudy SCT005 SCT017 OVC039 68 64     88%     29.79   0    
Jun 17 14:15 NNE 6 1.75 Thunderstorms and Heavy Rain BKN003 OVC011 68 64     88%     29.8   0    
Jun 17 13:55 N 3 10 Thunderstorms OVC011 73 68     83%   74 29.81        
Jun 17 13:35 NE 3 10 Cloudy OVC015 73 68     83%   74 29.8        
Jun 17 13:15 E 3 10 Cloudy OVC017 73 68     83%   74 29.79        
Jun 17 12:55 ESE 5 10 Cloudy OVC015 73 68     83%   74 29.8        
Jun 17 12:35 SE 3 10 Cloudy OVC015 73 66     78%   74 29.81        
Jun 17 12:15 Calm 10 Cloudy OVC013 73 66     78%   74 29.82        
Jun 17 11:55 Calm 10 Cloudy OVC013 73 66     78%   74 29.82        
Jun 17 11:35 SE 6 10 Cloudy BKN011 OVC033 73 66     78%   74 29.83        
Jun 17 11:15 SE 3 10 Cloudy SCT010 OVC031 72 66     83%   72 29.84        
Jun 17 10:55 Calm 10 Cloudy SCT008 OVC029 72 66     83%   72 29.84        
Jun 17 10:35 Calm 10 Cloudy BKN008 OVC028 70 66     88%     29.84        
Jun 17 10:15 SSE 6 10 Cloudy SCT008 BKN031 OVC036 70 66     88%     29.84        
Jun 17 09:55 SSE 6 10 Cloudy OVC031 70 66     88%     29.83        
Jun 17 09:35 SE 6 10 Cloudy BKN031 OVC042 70 64     83%     29.84        
Jun 17 09:15 SE 5 10 Light Rain SCT005 SCT040 OVC047 70 64     83%     29.84        
Jun 17 08:55 S 5 10 Cloudy SCT007 OVC049 70 64     83%     29.84        
Jun 17 08:35 E 5 10 Cloudy SCT009 BKN041 OVC047 68 64     88%     29.84        
Jun 17 08:15 Calm 10 Cloudy OVC046 68 64     88%     29.84        
Jun 17 07:55 Calm 10 Cloudy BKN046 OVC050 66 64     94%     29.82        
Jun 17 07:35 Calm 10 Partly Cloudy SCT050 66 64     94%     29.82        
Jun 17 07:15 Calm 10 Clear CLR 66 64     94%     29.8        
Jun 17 06:55 Calm 10 Partly Cloudy SCT001 66 63     88%     29.81        
Jun 17 06:35 S 6 2 Fog/Mist OVC001 64 63     94%     29.81        
Jun 17 06:15 S 5 1.25 Fog/Mist OVC001 64 63     94%     29.8        
Jun 17 05:55 SSE 5 0.75 Fog/Mist OVC001 64 61     88%     29.8   0    
Jun 17 05:35 SSE 6 1 Fog/Mist OVC001 64 61     88%     29.81        
Jun 17 05:15 SSE 6 1 Light Rain OVC001 63 61     94%     29.81        
Jun 17 04:55 Calm 4 Fog/Mist BKN001 BKN044 OVC100 63 61     94%     29.81        
Jun 17 04:35 Calm 5 Fog/Mist SCT001 SCT015 BKN100 63 61     94%     29.83        
Jun 17 04:15 SSE 3 7 Light Rain SCT001 SCT008 SCT100 63 59     88%     29.83        
Jun 17 03:55 Calm 10 Mostly Cloudy SCT001 BKN008 BKN022 63 59     88%     29.79   0    
Jun 17 03:35 NNE 6 4 Thunderstorms and Rain SCT001 BKN006 OVC031 63 59     88%     29.78   0    
Jun 17 03:15 Calm 7 Rain SCT002 BKN024 OVC050 63 59     88%     29.84   0    
Jun 17 02:55 SW 5 5 Cloudy OVC002 61 59     94%     29.79   0    
Jun 17 02:35 E 7 3 Thunderstorms and Rain BKN002 BKN022 OVC035 63 59     88%     29.75   0    
Jun 17 02:15 SE 3 4 Thunderstorms and Rain SCT002 BKN022 OVC050 61 59     94%     29.81   0    
Jun 17 01:55 SSW 5 7 Rain SCT002 SCT015 OVC024 61 59     94%     29.81   0    
Jun 17 01:35 WSW 3 5 Rain BKN002 BKN017 OVC026 61 59     94%     29.81   0    
Jun 17 01:15 ENE 6 10 Thunderstorms and Rain BKN002 BKN024 OVC050 61 57     88%     29.76   0    
Jun 17 00:55 E 5 4 Thunderstorms and Rain SCT002 BKN025 OVC055 61 57     88%     29.8   0    
Jun 17 00:35 N 5 3 Thunderstorms and Heavy Rain SCT004 BKN026 OVC034 61 57     88%     29.81   0    
Jun 17 00:15 E 7 2 Thunderstorms and Heavy Rain OVC002 61 57     88%     29.79   0    
Jun 16 23:55 NW 3 3 Thunderstorms and Rain OVC002 61 57     88%     29.8   0    
Jun 16 23:35 NE 3 0.75 Thunderstorms and Fog/Mist OVC002 59 55     88%     29.77   0    
Jun 16 23:15 E 9 5 Cloudy BKN004 BKN022 OVC095 61 57     88%     29.75   0    
Jun 16 22:55 SSE 7 5 Thunderstorms and Heavy Rain SCT013 SCT023 OVC049 63 59     88%     29.76   0    
Jun 16 22:35 SE 5 10 Thunderstorms SCT022 BKN046 BKN050 64 61     88%     29.76        
Jun 16 22:15 ENE 6 10 Thunderstorms SCT022 BKN028 BKN055 66 61     83%     29.75        
Jun 16 21:55 Calm 7 Mostly Cloudy SCT028 BKN042 BKN050 66 61     83%     29.75        
Jun 16 21:35 Calm 10 Mostly Cloudy BKN044 BKN050 BKN070 64 59     83%     29.75        
Jun 16 21:15 Calm 10 Cloudy SCT031 BKN044 OVC060 64 59     83%     29.78        
Jun 16 20:55 ESE 3 10 Mostly Cloudy BKN046 BKN060 66 61     83%     29.77        
Jun 16 20:35 E 6 10 Mostly Cloudy BKN040 66 61     83%     29.79        
Jun 16 20:15 E 5 10 Mostly Cloudy BKN042 BKN055 70 61     73%     29.8        
Jun 16 19:55 E 3 10 Mostly Cloudy SCT032 BKN055 70 63     78%     29.81        
Jun 16 19:35 E 5 10 Mostly Cloudy BKN032 72 63     73%   72 29.81        
Jun 16 19:15 ESE 5 10 Mostly Cloudy BKN032 72 63     73%   72 29.81        
Jun 16 18:55 ESE 5 10 Clear CLR 73 63     69%   74 29.82        
Jun 16 18:35 E 5 10 Clear CLR 75 64     69%   76 29.82        
Jun 16 18:15 ESE 6 10 Clear CLR 75 63     65%   75 29.82        
Jun 16 17:55 SE 6 10 Partly Cloudy SCT110 75 63     65%   75 29.82        
Jun 16 17:35 SSE 5 10 Clear CLR 73 63     69%   74 29.83        
Jun 16 17:17 SE 7 10 Clear CLR 72 61     69%   72 29.84        
Jun 16 16:55 SSE 8 10 Clear CLR 72 61     69%   72 29.84        
Jun 16 16:35 SE 5 10 Clear CLR 70 59     69%     29.85        
Jun 16 16:15 ESE 8 10 Clear CLR 70 59     69%     29.84        
Jun 16 15:55 ESE 7 10 Clear CLR 70 59     69%     29.84        
Jun 16 15:35 E 7 10 Clear CLR 70 59     69%     29.83        
Jun 16 15:15 ESE 6 10 Clear CLR 68 61     78%     29.82        
Jun 16 15:02 ESE 7 10 Clear CLR 70 61     73%     29.81        
Jun 16 14:39 SE 3 10 Clear CLR 70 61     73%     29.81        
Jun 16 14:15 SE 7 10 Clear CLR 66 61     83%     29.78        
Notice The following observation data may not be complete
Jun 16 13:55 Calm 10 Light Rain SCT035          %              
Notice The following observation data may not be complete
Jun 16 13:35 NW 5 10 Light Rain SCT035          %     29.81        
Jun 16 13:15 Calm 10 Clear CLR 61 55     82%     29.79        
Jun 16 12:55 Calm 10 Clear CLR 59 54     82%     29.79        
Jun 16 12:35 Calm 10 Clear CLR 57 54     88%     29.79        
Jun 16 12:15 E 3 10 Clear   57 54     88%     29.78        
Jun 16 11:55 E 6 10 Clear CLR 57 54     88%     29.79        
Jun 16 11:35 E 3 10 Mostly Cloudy SCT075 BKN090 57 52     82%     29.81        
Jun 16 11:15 SE 7 10 Mostly Cloudy BKN075 BKN090 57 54     88%     29.81        
Jun 16 10:55 ESE 6 10 Cloudy OVC075 57 54     88%     29.79        
Jun 16 10:35 ESE 9 7 Cloudy BKN065 OVC075 57 55     94%     29.78        
Jun 16 10:15   5 Fog/Mist SCT003 OVC055 57 55     94%     29.81        
Jun 16 09:55 E 6 5 Fog/Mist OVC003 57 55     94%     29.82        
Jun 16 09:35 ESE 5 5 Fog/Mist OVC003 57 55     94%     29.83        
Jun 16 09:15 ESE 3 5 Fog/Mist OVC003 57 55     94%     29.83        
Jun 16 08:55 ESE 3 5 Fog/Mist OVC001 57 54     88%     29.82        
Jun 16 08:35 ESE 5 1.25 Fog/Mist OVC001 55 54     94%     29.82        
Jun 16 08:18 ESE 6 2 Fog/Mist OVC001 55 54     94%     29.82        
Jun 16 07:55 E 6 2 Fog/Mist OVC001 55 54     94%     29.8        
Jun 16 07:35 ENE 5 1 Fog/Mist OVC001 55 54     94%     29.79        
Jun 16 07:15 ENE 6 0.5 Fog OVC001 55 54     94%     29.78        
Jun 16 06:55 ENE 3 0.25 Fog OVC001 55 52     88%     29.78        
Jun 16 06:35 E 5 0.25 Fog OVC001 54 52     94%     29.79        
Jun 16 06:17 E 6 0.25 Fog OVC001 54 52     94%              
Jun 16 05:55 E 6 0.25 Fog OVC001 52 50     94%     29.79        
Jun 16 05:35 E 5 0.25 Fog OVC001 52 50     94%     29.8        
Jun 16 05:16 E 5 0.25 Fog OVC001 52 50     94%     29.79        
Jun 16 04:55 ESE 6 0.25 Fog OVC001 52 50     94%     29.79        
Jun 16 04:35 ESE 5 0.25 Fog OVC001 52 50     94%     29.78        
Jun 16 04:15 ESE 5 0.25 Fog OVC001 52 50     94%     29.78        
Jun 16 03:55 E 5 0.25 Fog OVC001 52 50     94%     29.79        
Jun 16 03:35 E 5 0.5 Fog OVC001 52 50     94%     29.79        
Jun 16 03:16 E 5   Cloudy OVC001 52 50     94%     29.79        
Jun 16 02:55 ESE 5 0.25 Fog OVC001 52 50     94%     29.79        
Jun 16 02:35 E 5 0.25 Fog OVC001 52 50     94%     29.8        
Jun 16 02:15 ESE 6 0.25 Fog OVC001 52 50     94%     29.81        
Jun 16 01:55 E 6 0.25 Fog OVC001 52 50     94%     29.81        
Jun 16 01:35 ESE 6 0.25 Fog OVC001 52 50     94%     29.81        
Jun 16 01:15 ESE 5 0.5 Fog OVC001 54 52     94%     29.81        
Jun 16 00:55 E 7 0.5 Fog OVC001 54 52     94%     29.81        
Jun 16 00:35 E 7 0.75 Fog/Mist OVC001 54 52     94%     29.81        
Jun 16 00:15 E 6 1.25 Fog/Mist OVC001 54 52     94%     29.82        
Jun 15 23:55 E 7 2.5 Fog/Mist OVC001 54 52     94%     29.82        
Jun 15 23:35 E 7 2 Fog/Mist OVC001 54 52     94%     29.83        
Jun 15 23:15 E 8 1.75 Fog/Mist OVC001 54 52     94%     29.83        
Jun 15 22:55 E 5 1.5 Fog/Mist OVC001 54 52     94%     29.83        
Jun 15 22:35 E 7 1 Fog/Mist OVC001 54 52     94%     29.83        
Jun 15 22:15 E 8 5 Fog/Mist OVC003 55 54     94%     29.82        
Jun 15 21:55 E 8 7 Cloudy OVC003 57 54     88%     29.82        
Jun 15 21:35 E 6 10 Mostly Cloudy BKN005 57 54     88%     29.82        
Jun 15 21:15 E 5 10 Partly Cloudy SCT005 59 55     88%     29.81        
Jun 15 20:55 E 9 10 Clear CLR 61 55     82%     29.8        
Jun 15 20:36 E 9 10 Clear CLR 66 59     78%     29.8        
Jun 15 20:15 E 9 10 Clear CLR 68 61     78%     29.79        
Jun 15 19:55 E 9 10 Partly Cloudy SCT044 73 64     73%   74 29.78        
Jun 15 19:35 ESE 5 10 Mostly Cloudy BKN042 73 64     73%   74 29.78        
Jun 15 19:15 SE 5 10 Cloudy OVC040 73 64     73%   74 29.78        
Jun 15 18:55 SE 5 10 Partly Cloudy SCT040 75 64     69%   76 29.77        
Jun 15 18:35 SE 6 10 Clear CLR 75 64     69%   76 29.77        
Jun 15 18:15 SE 6 10 Clear CLR 75 64     69%   76 29.77        
Jun 15 17:55 SSE 6 10 Clear CLR 75 64     69%   76 29.77        
Jun 15 17:35 SE 7 10 Clear CLR 73 64     73%   74 29.77        
Jun 15 17:15 S 5 10 Clear CLR 73 63     69%   74 29.77        
Jun 15 16:55 SSE 9 10 Clear CLR 72 63     73%   72 29.77        
Jun 15 16:35 SSE 10 10 Clear CLR 72 63     73%   72 29.78        
Jun 15 16:15 SSE 11 10 Partly Cloudy SCT110 72 63     73%   72 29.8        
Jun 15 15:55 SSE 10 10 Thunderstorms SCT110 72 63     73%   72 29.8        
Jun 15 15:35 SSE 9 10 Clear CLR 72 64     78%   72 29.8        
Jun 15 15:15 SSE 10 10 Clear CLR 68 63     83%     29.8        
Jun 15 14:55 SE 8 10 Thunderstorms SCT020 66 63     88%     29.78   0    
Jun 15 14:35 SE 13 10 Thunderstorms and Rain SCT019 BKN040 BKN060 64 63     94%     29.76   0    
Jun 15 14:15 S 9 10 Thunderstorms and Rain SCT020 BKN050 OVC110 66 63     88%     29.79   0    
Jun 15 13:55 S 6 10 Thunderstorms SCT050 OVC110 66 63     88%     29.8   0    
Jun 15 13:35 SE 9 10 Cloudy SCT003 SCT012 OVC100 66 63     88%     29.78   0    
Jun 15 13:15 ESE 9 3 Thunderstorms and Heavy Rain SCT003 BKN008 OVC015 63 61     94%     29.78   0    
Jun 15 12:55 W 8 4 Thunderstorms and Heavy Rain SCT008 OVC015 64 61     88%         0    
Jun 15 12:35   7 Cloudy BKN008 OVC011 63 59     88%     29.86   0    
Jun 15 12:15 ESE 9 10 Cloudy OVC008 63 59     88%     29.75        
Jun 15 11:55 ESE 8 10 Thunderstorms OVC008 61 57     88%     29.76        
Jun 15 11:35 SSE 5 7 Cloudy SCT003 BKN010 OVC023 61 57     88%     29.77        
Jun 15 11:15 SE 6 5 Fog/Mist BKN003 59 55     88%     29.79        
Jun 15 10:55 ESE 5 5 Thunderstorms and Fog/Mist OVC003 59 55     88%     29.81        
Jun 15 10:35 ESE 7 7 Thunderstorms OVC003 59 55     88%     29.82        
Jun 15 10:15 ESE 9 5 Fog/Mist OVC003 59 55     88%     29.82        
Jun 15 09:55 ESE 8 10 Thunderstorms OVC003 57 55     94%     29.82        
Jun 15 09:35 ESE 7 10 Cloudy OVC003 57 55     94%     29.82        
Jun 15 09:15 ESE 9 7 Cloudy OVC003 57 55     94%     29.84        
Jun 15 08:55 E 11 4 Fog/Mist OVC003 57 54     88%     29.84        
Jun 15 08:35 E 14 10 Cloudy BKN005 OVC024 57 54     88%     29.84        
Jun 15 08:15 E 10 10 Cloudy OVC026 57 52     82%     29.84        
Jun 15 07:55 E 10 10 Cloudy OVC026 55 52     88%     29.84        
Jun 15 07:35 E 3 10 Cloudy OVC026 59 52     77%     29.83        
Jun 15 07:15 E 7 10 Thunderstorms OVC026 61 52     72%     29.8        
Jun 15 06:55 NNE 6 10 Cloudy OVC028 61 52     72%     29.82        
Jun 15 06:35 N 8 10 Cloudy OVC028 59 50     72%     29.83        
Jun 15 06:15 N 7 10 Cloudy BKN028 OVC038 57 48     72%     29.83        
Jun 15 05:55 Calm 10 Cloudy BKN030 BKN037 OVC100 55 46     72%     29.8        
Jun 15 05:35 Calm 10 Mostly Cloudy SCT031 BKN100 54 46     77%     29.8        
Jun 15 05:15 ESE 6 10 Partly Cloudy SCT100 54 46     77%     29.75        
Jun 15 04:55 ESE 5 10 Clear CLR 54 45     71%     29.73        
May 15 12:55 ESE 10 5 Haze CLR 57 28     33%     30.09        
May 15 10:15 ESE 9 5 Haze CLR 54 30     41%     30.1        
May 15 04:15 NW 3 10 Clear   48 25     40% 47   30.03        
May 15 01:15 N 11 10 Clear CLR 59 25     27%     29.95        
May 15 00:15 N 6 10 Clear CLR 61 27     27%     29.93        
May 14 22:55 NNW 7 10 Clear CLR 63 30     29%     29.9        
May 14 20:35 WNW 3 10 Clear CLR 68 48     49%              
May 14 20:15 W 6 10 Clear CLR 70 48     46%     29.84        
Notice The following observation data may not be complete
May 14 18:35   10 Mostly Cloudy BKN100          %              
May 14 12:15 W 8 10 Partly Cloudy SCT065 77 41     28%   76 29.86        
May 14 05:55 W 6 10 Clear CLR 55 41     58%     29.87        
May 13 17:15 W 14 10 Clear CLR 73        %     29.88        
May 13 12:55 W 7 10 Clear CLR 68        %     29.96        
May 13 07:55 W 3 10 Clear CLR 48 30     50% 47   30.04        
Notice The following observation data may not be complete
May 13 04:35   10 Clear CLR          %              
May 13 03:35 Calm 10 Clear CLR 30 25     80%     30.05        
May 12 17:35 ESE 5 10 Clear CLR 59 18     20%     30.11        
May 12 13:35 ESE 8 10 Clear CLR 61        %     30.13        
May 12 08:35 E 5 10 Clear CLR 45 21     39% 42   30.17        
May 12 07:55 Calm 10 Clear CLR 39 25     56%     30.16        
May 12 07:15 Calm 10 Clear CLR 34 23     64%     30.16        
May 12 02:55 Calm 10 Clear CLR 28 19     69%     30.12        
May 11 22:55 Calm 10 Clear CLR 36 14     41%     30.11        
May 11 20:15 E 7 10 Clear CLR 43        % 39   30.07        
May 11 18:55 ESE 9 10 Clear CLR 46        % 42   30.07        
May 11 13:15 E 11 10 Clear CLR 52 16     24%     30.08        
May 11 09:35 E 8 10 Clear CLR 45 25     45% 40   30.12        
Jun 12 05:55 Calm 0.5 Fog VV005 55 52     88%     29.86        
Jun 12 01:55 Calm 7 Clear CLR 57 55     94%     29.8        
Jun 11 22:15 Calm 10 Clear CLR 57 55     94%     29.75        
Jun 11 21:35 Calm 7 Clear CLR 61 55     82%     29.74        
Notice The following observation data may not be complete
Jun 11 20:14   10 Clear CLR          %              
Jun 11 18:15 SE 6 10 Cloudy OVC023 64 57     77%     29.72        
Jun 11 14:15 SSW 3 10 Clear CLR 63 54     72%     29.75        
Jun 10 23:35 W 6 10 Clear CLR 66 52     60%     29.66        
Jun 10 21:55 W 7 10 Clear CLR 72 54     53%   71          
Jun 10 19:35 W 10 10 Clear CLR 81 54     39%   80 29.51        
Notice The following observation data may not be complete
Jun 10 19:15   10 Clear CLR          %              
Jun 10 17:55   10 Clear CLR 84 57     40%   83 29.45        
Jun 10 16:35 WSW 23 10 Partly Cloudy and Windy SCT050 SCT055 88 61     40%   88 29.4        
Jun 10 11:55 SSW 21 10 Clear and Windy CLR 84 61     45%   84 29.37        
Jun 09 22:15 E 8 10 Clear CLR 54 46     77%     29.68        
Jun 09 20:35 E 8 10 Clear CLR 57 48     72%     29.7        
Jun 09 13:55 ESE 8 10 Clear CLR 72 55     57%   71 29.82        
Notice The following observation data may not be complete
Jun 09 10:34   10 Clear CLR          %              
Jun 09 08:55 E 8 10 Clear CLR 63 55     77%     29.89        
Jun 08 23:15 E 5 10 Clear CLR 57 50     77%     29.88        
Jun 08 21:55 Calm 10 Mostly Cloudy BKN090 61 48     63%     29.88        
Jun 08 21:15 Calm 10 Partly Cloudy SCT080 63 48     59%     29.87        
Jun 08 14:35 NNW 11 10 Cloudy BKN050 BKN060 OVC080 75 54     47%   75 29.87        
Jun 08 11:14 NNW 10 10 Clear CLR 73 54     50%   73 29.89        
Jun 08 10:35 NNW 10 10 Partly Cloudy SCT037 72 54     53%   71 29.89        
Jun 07 21:35 SSW 3 10 Light Rain SCT120 66 50     56%     29.98        
Jun 07 13:55 S 7 10 Clear CLR 79 43     28%   78 30.04        
Jun 07 11:55 S 10 10 Clear CLR 75 43     31%   74 30.09        
Jun 07 11:35 SSE 9 7 Clear CLR 73 45     36%   72 30.09        
Jun 06 13:55 SE 3 10 Clear CLR 73 37     27%   72 30.13        
Jun 06 11:35 SSW 7 10 Clear CLR 70 30     23%     30.16        
Jun 06 05:55 Calm 10 Clear CLR 39 36     87%     30.15        
Jun 06 05:35 Calm 10 Clear CLR 41 36     81%     30.14        
Jun 06 01:35 Calm 10 Clear CLR 43 37     81%     30.12        
Jun 05 21:55 E 3 10 Clear CLR 55 36     47%     30.1        
Notice The following observation data may not be complete
Jun 05 20:15   10 Clear CLR          %